Girona, Spain

1:16 PM CEST on September 25, 2017 (GMT +0200)
Girona

Weather History for LEGE - October, 2012

Change the Weather History Date:

Wednesday, October 10, 2012

  Actual Average Record
Temperature  
Mean Temperature 69 °F -  
Max Temperature 78 °F 68 °F 87 °F (2011)
Min Temperature 60 °F 48 °F 44 °F (1998)
Cooling Degree Days 4    
Growing Degree Days 19 (Base 50)    
Moisture  
Dew Point 64 °F    
Average Humidity 90    
Maximum Humidity 100    
Minimum Humidity 46    
Precipitation  
Precipitation 0.04 in 0.11 in - ()
Sea Level Pressure  
Sea Level Pressure 29.95 in    
Wind  
Wind Speed 2 mph ()    
Max Wind Speed 13 mph    
Max Gust Speed -    
Visibility 4.6 miles    
Events Fog , Rain    
Averages and records for this station are not official NWS values.
T = Trace of Precipitation, MM = Missing Value Source: Averaged Metar Reports

Daily Weather History Graph

Daily Weather History Graph

Search for Another Location

Airport or City:

Trip Planner

Search our weather history database for the weather conditions in past years. The results will help you decide how hot, cold, wet, or windy it might be!

Date:

Astronomy

Oct. 10, 2012 Rise Set
Actual Time 7:55 AM CEST 7:15 PM CEST
Civil Twilight 7:27 AM CEST 7:42 PM CEST
Nautical Twilight 6:55 AM CEST 8:15 PM CEST
Astronomical Twilight 6:23 AM CEST 8:47 PM CEST
Moon 2:11 AM CEST (10/10) 4:13 PM CEST (10/10)
Length of Visible Light 12h 14m
Length of Day
11h 19m
Waning Crescent, 30% of the Moon is Illuminated
Oct 10
Waning Crescent
Oct 15
New
Oct 22
First Quarter
Oct 29
Full
Nov 7
Last Quarter

Hourly Weather History & Observations

Time (CEST) Temp. Dew Point Humidity Pressure Visibility Wind Dir Wind Speed Gust Speed Precip Events Conditions
12:00 AM 68.0 °F 66.2 °F 94% 29.98 in 6.2 mi Calm Calm - N/A   Mostly Cloudy
12:30 AM 66.2 °F 66.2 °F 100% 29.98 in 5.6 mi Calm Calm - N/A   Mostly Cloudy
1:00 AM 66.2 °F 66.2 °F 100% 29.98 in 5.0 mi North 2.3 mph - N/A   Mostly Cloudy
1:30 AM 68.0 °F 66.2 °F 94% 29.98 in 5.0 mi Variable 1.2 mph - N/A   Mostly Cloudy
2:00 AM 67 °F 64 °F 85% 29.97 in 5 mi NNE 4.6 mph - -   Mist
2:00 AM 66.2 °F 66.2 °F 100% 29.98 in 5.6 mi NNE 3.5 mph - N/A   Scattered Clouds
2:30 AM 66.2 °F 66.2 °F 100% 29.98 in 5.6 mi Calm Calm - N/A   Partly Cloudy
3:00 AM 64.4 °F 64.4 °F 100% 29.98 in 6.2 mi West 2.3 mph - N/A   Partly Cloudy
4:30 AM 66.2 °F 66.2 °F 100% 29.95 in 5.6 mi NW 2.3 mph - N/A   Scattered Clouds
5:00 AM 62.6 °F 62.6 °F 100% 29.95 in 5.6 mi NE 3.5 mph - N/A   Scattered Clouds
5:30 AM 62.6 °F 62.6 °F 100% 29.95 in 5.6 mi Calm Calm - N/A   Partly Cloudy
6:00 AM 62.6 °F 62.6 °F 100% 29.95 in 4.3 mi Calm Calm - N/A   Partly Cloudy
6:30 AM 62.6 °F 62.6 °F 100% 29.95 in 3.7 mi Calm Calm - N/A   Partly Cloudy
7:00 AM 60.8 °F 60.8 °F 100% 29.95 in 4.3 mi Calm Calm - N/A   Partly Cloudy
7:30 AM 62.6 °F 62.6 °F 100% 29.95 in 1.9 mi Calm Calm - N/A Fog Patches of Fog
7:37 AM 62.6 °F 62.6 °F 100% 29.95 in 1.9 mi Calm Calm - N/A Fog Patches of Fog
7:52 AM 62.6 °F 62.6 °F 100% 29.95 in 0.5 mi West 1.2 mph - N/A Fog Patches of Fog
8:00 AM 62 °F 60 °F 93% 29.95 in 0 mi SSE 2.3 mph - -  
8:00 AM 60.8 °F 60.8 °F 100% 29.95 in 0.5 mi West 1.2 mph - N/A Fog Patches of Fog
8:22 AM 62.6 °F 62.6 °F 100% 29.95 in 3.7 mi Calm Calm - N/A Fog Patches of Fog
8:30 AM 62.6 °F 62.6 °F 100% 29.95 in 5.0 mi Calm Calm - N/A Fog Patches of Fog
8:36 AM 62.6 °F 62.6 °F 100% 29.98 in 0.1 mi Variable 2.3 mph - N/A Fog Fog
8:39 AM 62.6 °F 62.6 °F 100% 29.98 in 0.3 mi Variable 1.2 mph - N/A Fog Fog
8:43 AM 62.6 °F 62.6 °F 100% 29.98 in 0.0 mi Variable 1.2 mph - N/A Fog Fog
9:00 AM 62.6 °F 62.6 °F 100% 29.98 in 0.0 mi Calm Calm - N/A Fog Fog
9:30 AM 64.4 °F 64.4 °F 100% 29.98 in 0.0 mi Calm Calm - N/A Fog Fog
10:00 AM 64.4 °F 64.4 °F 100% 29.98 in 3.7 mi Calm Calm - N/A Fog Patches of Fog
10:30 AM 64.4 °F 64.4 °F 100% 29.98 in 5.0 mi Calm Calm - N/A Fog Patches of Fog
11:00 AM 66.2 °F 66.2 °F 100% 29.98 in 5.6 mi Calm Calm - N/A   Partly Cloudy
11:30 AM 71.6 °F 69.8 °F 94% 29.98 in 6.2 mi Calm Calm - N/A   Partly Cloudy
12:00 PM 73.4 °F 66.2 °F 78% 29.98 in 6.2 mi Variable 1.2 mph - N/A   Partly Cloudy
12:30 PM 73.4 °F 62.6 °F 69% 29.98 in 6.2 mi South 3.5 mph - N/A   Partly Cloudy
1:00 PM 75.2 °F 62.6 °F 65% 29.98 in 6.2 mi South 4.6 mph - N/A   Scattered Clouds
1:30 PM 77.0 °F 62.6 °F 61% 29.95 in 6.2 mi South 6.9 mph - N/A   Scattered Clouds
2:00 PM 78 °F 61 °F 46% 29.91 in 12 mi South 9.2 mph - -   Partly Cloudy
2:00 PM 77.0 °F 60.8 °F 57% 29.95 in 6.2 mi South 9.2 mph - N/A   Scattered Clouds
3:00 PM 75.2 °F 62.6 °F 65% 29.92 in 6.2 mi South 10.4 mph - N/A   Scattered Clouds
3:30 PM 73.4 °F 64.4 °F 73% 29.92 in 6.2 mi South 12.7 mph - N/A   Scattered Clouds
4:00 PM 73.4 °F 62.6 °F 69% 29.92 in 6.2 mi South 12.7 mph - N/A   Scattered Clouds
4:30 PM 73.4 °F 62.6 °F 69% 29.92 in 6.2 mi South 10.4 mph - N/A   Scattered Clouds
5:00 PM 71.6 °F 62.6 °F 73% 29.89 in 5.6 mi South 12.7 mph - N/A Rain Rain
5:30 PM 71.6 °F 64.4 °F 78% 29.89 in 5.6 mi South 9.2 mph - N/A   Mostly Cloudy
6:00 PM 71.6 °F 64.4 °F 78% 29.89 in 5.6 mi South 10.4 mph - N/A   Scattered Clouds
6:30 PM 71.6 °F 64.4 °F 78% 29.89 in 5.6 mi South 9.2 mph - N/A   Scattered Clouds
7:00 PM 71.6 °F 64.4 °F 78% 29.89 in 5.6 mi SSE 5.8 mph - N/A   Scattered Clouds
7:30 PM 69.8 °F 64.4 °F 83% 29.89 in 5.6 mi SSE 6.9 mph - N/A   Scattered Clouds
8:00 PM 70 °F 65 °F 81% 29.89 in 5 mi SE 3.5 mph - - Rain Light Drizzle
8:00 PM 69.8 °F 66.2 °F 88% 29.92 in 5.0 mi Variable 2.3 mph - N/A   Drizzle
8:30 PM 68.0 °F 68.0 °F 100% 29.92 in 5.0 mi Variable 1.2 mph - N/A   Drizzle
9:00 PM 68.0 °F 68.0 °F 100% 29.92 in 5.0 mi Calm Calm - N/A   Partly Cloudy
9:30 PM 68.0 °F 66.2 °F 94% 29.92 in 5.0 mi NNE 5.8 mph - N/A   Partly Cloudy
10:00 PM 68.0 °F 66.2 °F 94% 29.92 in 5.0 mi North 3.5 mph - N/A   Partly Cloudy
10:30 PM 66.2 °F 66.2 °F 100% 29.92 in 5.0 mi NNE 3.5 mph - N/A   Partly Cloudy
11:00 PM 66.2 °F 66.2 °F 100% 29.92 in 5.0 mi Variable 1.2 mph - N/A   Scattered Clouds
11:30 PM 66.2 °F 66.2 °F 100% 29.89 in 5.0 mi NNE 4.6 mph - N/A   Scattered Clouds